• In Hungary
  • List of Countries
  • For 7 days
  • Water Temperature
  • Satellite Maps
  • Weather Map
  • News
  • Weather Widgets
  • user-avatar
    Login

    Hourly Weather Daut-Kayupovo

    Today, 25 May, Friday

    Time Temperature Precipitation Wind Pressure Humidity
    00:00 +16°C° 0.3 mm 0 mps 729 mmHg 80%
    01:00 +15°C° 0.3 mm 0 mps 729 mmHg 81%
    02:00 +15°C° 0 mm 0 mps 728 mmHg 82%
    03:00 +15°C° 0 mm 1 mps 728 mmHg 83%
    04:00 +15°C° 0 mm 1 mps 727 mmHg 84%
    05:00 +16°C° 0 mm 1 mps 727 mmHg 79%
    06:00 +17°C° 0 mm 2 mps 727 mmHg 75%
    07:00 +19°C° 0 mm 3 mps 727 mmHg 71%
    08:00 +20°C° 0 mm 3 mps 726 mmHg 66%
    09:00 +21°C° 0 mm 4 mps 726 mmHg 61%
    10:00 +22°C° 0 mm 5 mps 726 mmHg 56%
    11:00 +21°C° 0 mm 4 mps 726 mmHg 59%
    12:00 +21°C° 0 mm 4 mps 726 mmHg 62%
    13:00 +20°C° 0 mm 3 mps 725 mmHg 65%
    14:00 +20°C° 0 mm 4 mps 725 mmHg 68%
    15:00 +19°C° 0 mm 4 mps 725 mmHg 71%
    16:00 +17°C° 0 mm 5 mps 725 mmHg 73%
    17:00 +16°C° 0.1 mm 5 mps 725 mmHg 77%
    18:00 +14°C° 0.1 mm 5 mps 724 mmHg 80%
    19:00 +13°C° 0.1 mm 6 mps 724 mmHg 84%
    20:00 +11°C° 0.6 mm 6 mps 724 mmHg 85%
    21:00 +9°C° 0.6 mm 6 mps 725 mmHg 86%
    22:00 +8°C° 0.6 mm 6 mps 725 mmHg 87%
    23:00 +7°C° 0.4 mm 6 mps 725 mmHg 85%

    Tomorrow, 26 May, Saturday

    Time Temperature Precipitation Wind Pressure Humidity
    00:00 +6°C° 0.4 mm 7 mps 725 mmHg 84%
    01:00 +5°C° 0.4 mm 7 mps 725 mmHg 83%
    02:00 +4°C° 0 mm 7 mps 725 mmHg 82%
    03:00 +3°C° 0 mm 6 mps 726 mmHg 81%
    04:00 +3°C° 0 mm 6 mps 726 mmHg 80%
    05:00 +3°C° 0 mm 7 mps 727 mmHg 77%
    06:00 +4°C° 0 mm 7 mps 727 mmHg 75%
    07:00 +5°C° 0 mm 8 mps 728 mmHg 72%
    08:00 +6°C° 0 mm 8 mps 728 mmHg 65%
    09:00 +7°C° 0 mm 8 mps 729 mmHg 58%
    10:00 +9°C° 0 mm 8 mps 729 mmHg 51%
    11:00 +10°C° 0 mm 8 mps 730 mmHg 49%
    12:00 +10°C° 0 mm 8 mps 730 mmHg 47%
    13:00 +11°C° 0 mm 8 mps 731 mmHg 45%
    14:00 +11°C° 0 mm 8 mps 731 mmHg 45%
    15:00 +11°C° 0 mm 8 mps 732 mmHg 45%
    16:00 +11°C° 0 mm 7 mps 732 mmHg 45%
    17:00 +10°C° 0 mm 7 mps 732 mmHg 49%
    18:00 +9°C° 0 mm 7 mps 733 mmHg 52%
    19:00 +8°C° 0 mm 6 mps 733 mmHg 55%
    20:00 +7°C° 0 mm 6 mps 734 mmHg 57%
    21:00 +6°C° 0 mm 5 mps 734 mmHg 59%
    22:00 +4°C° 0 mm 4 mps 735 mmHg 61%
    23:00 +4°C° 0 mm 4 mps 735 mmHg 63%

    Day after tomorrow, 27 May, Sunday

    Time Temperature Precipitation Wind Pressure Humidity
    00:00 +3°C° 0 mm 3 mps 735 mmHg 65%
    01:00 +2°C° 0 mm 3 mps 736 mmHg 68%
    02:00 +2°C° 0 mm 3 mps 736 mmHg 69%
    03:00 +2°C° 0 mm 2 mps 736 mmHg 71%
    04:00 +2°C° 0 mm 2 mps 736 mmHg 72%
    05:00 +4°C° 0 mm 2 mps 737 mmHg 67%
    06:00 +5°C° 0 mm 2 mps 737 mmHg 62%
    07:00 +7°C° 0 mm 2 mps 737 mmHg 58%
    08:00 +9°C° 0 mm 3 mps 737 mmHg 53%
    09:00 +10°C° 0 mm 3 mps 737 mmHg 48%
    10:00 +12°C° 0 mm 4 mps 737 mmHg 44%
    11:00 +13°C° 0 mm 4 mps 737 mmHg 45%
    12:00 +14°C° 0 mm 5 mps 737 mmHg 47%
    13:00 +15°C° 0 mm 5 mps 736 mmHg 48%
    14:00 +15°C° 0 mm 6 mps 736 mmHg 51%
    15:00 +16°C° 0 mm 6 mps 735 mmHg 53%
    16:00 +16°C° 0 mm 7 mps 735 mmHg 55%
    17:00 +16°C° 0 mm 6 mps 734 mmHg 59%
    18:00 +15°C° 0 mm 5 mps 734 mmHg 63%
    19:00 +14°C° 0 mm 5 mps 733 mmHg 67%
    20:00 +13°C° 0 mm 5 mps 733 mmHg 69%
    21:00 +12°C° 0 mm 5 mps 733 mmHg 71%
    22:00 +10°C° 0 mm 5 mps 732 mmHg 72%
    23:00 +10°C° 0 mm 5 mps 731 mmHg 72%

    28 May, Monday

    Time Temperature Precipitation Wind Pressure Humidity
    00:00 +9°C° 0 mm 6 mps 731 mmHg 72%
    01:00 +9°C° 0 mm 6 mps 730 mmHg 72%
    02:00 +9°C° 0.1 mm 6 mps 730 mmHg 71%
    03:00 +9°C° 0.1 mm 6 mps 729 mmHg 71%
    04:00 +9°C° 0.1 mm 7 mps 729 mmHg 71%
    05:00 +9°C° 0.5 mm 7 mps 728 mmHg 75%
    06:00 +9°C° 0.5 mm 8 mps 728 mmHg 79%
    07:00 +9°C° 0.5 mm 8 mps 727 mmHg 83%
    08:00 +8°C° 1.8 mm 7 mps 727 mmHg 85%
    09:00 +8°C° 1.8 mm 6 mps 727 mmHg 87%
    10:00 +7°C° 1.8 mm 5 mps 727 mmHg 90%
    11:00 +8°C° 0.5 mm 5 mps 728 mmHg 84%
    12:00 +8°C° 0.5 mm 4 mps 728 mmHg 78%
    13:00 +10°C° 0.5 mm 3 mps 728 mmHg 72%
    14:00 +11°C° 0.2 mm 4 mps 728 mmHg 69%
    15:00 +11°C° 0.2 mm 4 mps 728 mmHg 66%
    16:00 +12°C° 0.2 mm 5 mps 728 mmHg 63%
    17:00 +10°C° 0.2 mm 5 mps 728 mmHg 66%
    18:00 +11°C° 0.2 mm 4 mps 728 mmHg 69%
    19:00 +10°C° 0.2 mm 4 mps 728 mmHg 71%
    20:00 +7°C° 0 mm 4 mps 728 mmHg 75%
    21:00 +5°C° 0 mm 3 mps 728 mmHg 79%
    22:00 +4°C° 0 mm 3 mps 728 mmHg 82%
    23:00 +3°C° 0 mm 3 mps 728 mmHg 83%

    29 May, Tuesday

    Time Temperature Precipitation Wind Pressure Humidity
    00:00 +2°C° 0 mm 3 mps 728 mmHg 84%
    01:00 +1°C° 0 mm 3 mps 728 mmHg 85%
    02:00 +1°C° 0 mm 3 mps 729 mmHg 85%
    03:00 0°C° 0 mm 3 mps 729 mmHg 85%
    04:00 0°C° 0 mm 3 mps 729 mmHg 84%
    05:00 0°C° 0 mm 4 mps 729 mmHg 79%
    06:00 +1°C° 0 mm 5 mps 729 mmHg 73%
    07:00 +3°C° 0 mm 5 mps 729 mmHg 68%
    08:00 +4°C° 0 mm 6 mps 729 mmHg 63%
    09:00 +5°C° 0 mm 6 mps 729 mmHg 57%
    10:00 +6°C° 0 mm 7 mps 730 mmHg 52%
    11:00 +8°C° 0.1 mm 7 mps 729 mmHg 52%
    12:00 +8°C° 0.1 mm 7 mps 729 mmHg 51%
    13:00 +8°C° 0.1 mm 7 mps 729 mmHg 51%
    14:00 +8°C° 0 mm 7 mps 729 mmHg 51%
    15:00 +9°C° 0 mm 7 mps 729 mmHg 51%
    16:00 +9°C° 0 mm 7 mps 729 mmHg 51%
    17:00 +9°C° 0.1 mm 5 mps 728 mmHg 58%
    18:00 +8°C° 0.1 mm 4 mps 728 mmHg 66%
    19:00 +8°C° 0.1 mm 3 mps 728 mmHg 74%
    20:00 +8°C° 0.4 mm 3 mps 727 mmHg 80%
    21:00 +7°C° 0.4 mm 3 mps 727 mmHg 86%
    22:00 +7°C° 0.4 mm 3 mps 726 mmHg 92%
    23:00 +7°C° 0.1 mm 3 mps 726 mmHg 93%

    30 May, Wednesday

    Time Temperature Precipitation Wind Pressure Humidity
    00:00 +7°C° 0.1 mm 3 mps 725 mmHg 95%
    01:00 +7°C° 0.1 mm 3 mps 724 mmHg 96%
    02:00 +6°C° 0.7 mm 4 mps 723 mmHg 96%
    03:00 +6°C° 0.7 mm 4 mps 722 mmHg 96%
    04:00 +7°C° 0.7 mm 5 mps 722 mmHg 96%
    05:00 +8°C° 1.3 mm 6 mps 721 mmHg 95%
    06:00 +7°C° 1.3 mm 8 mps 720 mmHg 93%
    07:00 +8°C° 1.3 mm 9 mps 719 mmHg 91%
    08:00 +10°C° 0.3 mm 9 mps 719 mmHg 89%
    09:00 +10°C° 0.3 mm 8 mps 719 mmHg 88%
    10:00 +11°C° 0.3 mm 8 mps 718 mmHg 87%
    11:00 +11°C° 0.5 mm 8 mps 718 mmHg 85%
    12:00 +12°C° 0.5 mm 8 mps 718 mmHg 83%
    13:00 +13°C° 0.5 mm 8 mps 718 mmHg 81%
    14:00 +14°C° 1.3 mm 7 mps 718 mmHg 81%
    15:00 +14°C° 1.3 mm 6 mps 718 mmHg 80%
    16:00 +14°C° 1.3 mm 6 mps 718 mmHg 80%
    17:00 +13°C° 0.6 mm 5 mps 718 mmHg 82%
    18:00 +13°C° 0.6 mm 4 mps 717 mmHg 84%
    19:00 +12°C° 0.6 mm 4 mps 717 mmHg 86%
    20:00 +11°C° 0.6 mm 3 mps 717 mmHg 89%
    21:00 +12°C° 0.6 mm 2 mps 716 mmHg 93%
    22:00 +10°C° 0.6 mm 2 mps 716 mmHg 96%
    23:00 +10°C° 0.6 mm 3 mps 715 mmHg 96%
    Show more